Location: Kikino
(54.4440°N, 112.0940°W)
Time: 08:08:16
(UTC+00:00)

Transit 2A Rocket - Pass Details

Date: 22 May 2024
Orbit: 583 x 910 km, 66.7° (Epoch: 24 June)

Event Time Altitude Azimuth Distance (km) Brightness Sun altitude
Rises 10:09:14 0° 161° (SSE) 2,994 7.7 -7.2°
Reaches altitude 10° 10:12:24 10° 138° (SE) 2,153 7.3 -6.9°
Maximum altitude 10:15:04 15° 104° (ESE) 1,906 7.4 -6.7°
Drops below altitude 10° 10:17:52 10° 72° (ENE) 2,281 8.5 -6.4°
Sets 10:21:22 0° 50° (NE) 3,290 10.6 -6.1°
